FW9150 Weather Reports


Display with metric or nautical units.
time (UTC)temp
F
wind
direction
speed
MPH
gust
MPH
rain 1hr
in
rain 24hr
in
rain mn
in
humidity
%
barometer
mb
20260503191224 61 229 3.0 6.0 0.00 0.00 0.00 35 1016.0
20260503190225 62 194 6.0 11.0 0.00 0.00 0.00 35 1016.0
20260503185225 62 238 1.0 3.0 0.00 0.00 0.00 35 1016.1
20260503184224 62 172 4.0 7.0 0.00 0.00 0.00 36 1016.2
20260503183224 61 180 2.0 3.0 0.00 0.00 0.00 37 1016.4
20260503182224 61 217 1.0 2.0 0.00 0.00 0.00 37 1016.3
20260503181225 61 177 2.0 4.0 0.00 0.00 0.00 39 1016.4
20260503180225 61 135 1.0 4.0 0.00 0.00 0.00 38 1016.3
20260503175225 61 155 3.0 4.0 0.00 0.00 0.00 40 1016.4
20260503174225 60 184 1.0 2.0 0.00 0.00 0.00 46 1016.4
20260503172225 59 149 2.0 3.0 0.00 0.00 0.00 52 1016.5
20260503171323 58 225 0.0 0.0 0.00 0.00 0.00 52 1016.4
20260503170423 57 180 3.0 5.0 0.00 0.00 0.00 61 1016.4
20260503150525 50 157 0.0 0.0 0.00 0.00 0.00 72 1015.9
20260503130526 46 157 0.0 0.0 0.00 0.00 0.00 76 1015.2
20260503110723 47 157 0.0 0.0 0.00 0.00 0.00 86 1015.7
20260503081122 50 157 0.0 0.0 0.00 0.00 0.00 82 1016.9
20260503080124 50 157 0.0 0.0 0.00 0.00 0.00 81 1017.0
20260503072126 50 157 0.0 0.0 0.00 0.00 0.00 82 1017.4
20260503071224 50 157 0.0 0.0 0.00 0.00 0.00 81 1017.4
20260503070225 50 157 0.0 0.0 0.00 0.00 0.00 82 1017.6
20260503054521 50 157 0.0 0.0 0.00 0.00 0.00 87 1017.8
20260503053522 50 157 0.0 0.0 0.00 0.00 0.00 85 1017.9
20260503052620 51 157 0.0 0.0 0.00 0.00 0.00 84 1018.0
20260503051621 51 157 0.0 0.0 0.00 0.00 0.00 84 1018.0
20260503050620 51 157 0.0 0.0 0.00 0.00 0.00 85 1018.1
20260503045622 52 157 0.0 0.0 0.00 0.00 0.00 84 1018.0
20260503044622 52 157 0.0 0.0 0.00 0.00 0.00 83 1018.0
20260503043722 52 157 0.0 0.0 0.00 0.00 0.00 83 1017.8
20260503042738 53 157 0.0 0.0 0.00 0.00 0.00 82 1017.8
20260503041721 53 157 0.0 0.0 0.00 0.00 0.00 81 1017.8
20260503035822 54 157 0.0 0.0 0.00 0.00 0.00 81 1017.6
20260503034836 55 157 0.0 0.0 0.00 0.00 0.00 80 1017.6
20260503032921 56 157 0.0 0.0 0.00 0.00 0.00 76 1017.5
20260503032020 56 157 0.0 0.0 0.00 0.00 0.00 77 1017.5
20260503031020 57 157 0.0 0.0 0.00 0.00 0.00 75 1017.4
20260503030021 57 157 0.0 0.0 0.00 0.00 0.00 73 1017.4
20260503025119 58 157 0.0 0.0 0.00 0.00 0.00 70 1017.4
20260503024120 58 157 0.0 0.0 0.00 0.00 0.00 69 1017.4
20260503023121 59 157 0.0 0.0 0.00 0.00 0.00 65 1017.3
20260503020221 60 157 0.0 0.0 0.00 0.00 0.00 60 1017.4
20260503015321 60 157 0.0 1.0 0.00 0.00 0.00 57 1017.4
20260503014419 60 183 0.0 1.0 0.00 0.00 0.00 55 1017.4
20260503013421 60 225 0.0 2.0 0.00 0.00 0.00 52 1017.4
20260503011521 61 157 0.0 1.0 0.00 0.00 0.00 51 1017.6
20260503005619 62 217 1.0 2.0 0.00 0.00 0.00 48 1017.6
20260503004622 63 135 1.0 3.0 0.00 0.00 0.00 46 1017.6
20260503003620 63 153 2.0 4.0 0.00 0.00 0.00 44 1017.4
20260503002622 63 202 2.0 5.0 0.00 0.00 0.00 42 1017.6
20260503001720 64 250 2.0 3.0 0.00 0.00 0.00 44 1017.6
20260503000720 64 177 4.0 6.0 0.00 0.00 0.00 43 1017.8
20260502235723 64 226 1.0 3.0 0.00 0.00 0.00 44 1017.6
20260502234722 63 156 2.0 4.0 0.00 0.00 0.00 44 1017.7
20260502233819 63 180 2.0 5.0 0.00 0.00 0.00 43 1018.0
20260502232821 63 216 1.0 2.0 0.00 0.00 0.00 45 1018.0
20260502231822 63 241 2.0 5.0 0.00 0.00 0.00 45 1018.0
20260502230822 64 245 4.0 5.0 0.00 0.00 0.00 44 1018.2
20260502225920 64 208 4.0 7.0 0.00 0.00 0.00 44 1018.2
20260502223921 64 208 4.0 8.0 0.00 0.00 0.00 44 1018.4
20260502221922 65 210 6.0 10.0 0.00 0.00 0.00 42 1018.6
20260502215021 65 161 4.0 7.0 0.00 0.00 0.00 45 1018.9
20260502214020 65 164 4.0 5.0 0.00 0.00 0.00 43 1019.0
20260502213021 65 178 3.0 4.0 0.00 0.00 0.00 42 1019.0
20260502211037 66 204 3.0 5.0 0.00 0.00 0.00 39 1019.2
20260502210022 67 156 6.0 7.0 0.00 0.00 0.00 39 1019.3
20260502205120 67 153 1.0 6.0 0.00 0.00 0.00 40 1019.2
20260502204121 67 161 3.0 5.0 0.00 0.00 0.00 41 1019.3
20260502203219 67 182 9.0 12.0 0.00 0.00 0.00 40 1019.5
20260502202221 67 200 3.0 10.0 0.00 0.00 0.00 42 1019.4
20260502201223 66 161 4.0 7.0 0.00 0.00 0.00 44 1019.3
20260502195220 66 231 1.0 3.0 0.00 0.00 0.00 43 1019.4
20260502194220 66 201 3.0 6.0 0.00 0.00 0.00 43 1019.4
20260502193223 66 172 3.0 5.0 0.00 0.00 0.00 42 1019.6